Overview Statistics Trail Chart Weather Telemetry Raw packets
 

This is the latest recevied weather packets stored in our database for station/object KB1RMA-4. If no packets are shown the sender has not sent any weather packets the latest 10 day(s).

<< 95 96 97 98 99 100 101 >>
Time Temp. Humidity Pressure Rain* Wind** Luminosity Snow
1787924985 24.44° C 80% 1015.9 hPa 0 mm - 195 W/m² -
1787924678 24.44° C 81% 1015.8 hPa 0 mm - 211 W/m² -
1787924373 24.44° C 80% 1016 hPa 0 mm - 203 W/m² -
1787924067 23.89° C 81% 1016 hPa 0 mm - 197 W/m² -
1787923762 23.89° C 81% 1015.8 hPa 0 mm - 174 W/m² -
1787923457 23.89° C 82% 1016.2 hPa 0 mm - 159 W/m² -
1787923152 23.89° C 82% 1016 hPa 0 mm - 151 W/m² -
1787922847 23.89° C 83% 1016.1 hPa 0 mm - 154 W/m² -
1787922546 23.33° C 83% 1016 hPa 0 mm - 178 W/m² -
1787922246 23.33° C 84% 1015.8 hPa 0 mm - 194 W/m² -
1787921943 22.78° C 85% 1015.7 hPa 0 mm - 170 W/m² -
1787921638 22.78° C 86% 1016 hPa 0 mm - 192 W/m² -
1787921337 22.22° C 88% 1015.8 hPa 0 mm - 169 W/m² -
1787921034 22.22° C 90% 1016.1 hPa 0 mm - 184 W/m² -
1787920728 21.67° C 93% 1016.1 hPa 0 mm - 136 W/m² -
1787920428 21.67° C 94% 1016.1 hPa 0 mm - 129 W/m² -
1787920125 21.67° C 96% 1015.8 hPa 0 mm - 129 W/m² -
1787919820 21.67° C 96% 1015.8 hPa 0 mm - 120 W/m² -
1787919519 21.67° C 96% 1016.2 hPa 0 mm - 96 W/m² -
1787919220 21.11° C 96% 1016 hPa 0 mm - 93 W/m² -
1787918915 21.11° C 96% 1015.9 hPa 0 mm - 86 W/m² -
1787918611 21.11° C 96% 1016.3 hPa 0 mm - 74 W/m² -
1787918309 21.11° C 97% 1015.9 hPa 0 mm - 66 W/m² -
1787918008 21.11° C 97% 1015.9 hPa 0 mm - 55 W/m² -
1787917704 21.11° C 97% 1015.9 hPa 0 mm - 52 W/m² -

* Rain latest hour (hover to see other rain measurements)
** Current wind speed in m/s (hover to see current wind gust speed)